Skip Page Navigation
NASA JPL Caltech
NASA Logo - Jet Propulsion Laboratory + View the NASA Portal
+ Near-Earth Object (NEO) Program
Search JPL
JPL Home Earth Solar System Stars & Galaxies Technology
JPL Solar System Dynamics
BODIES ORBITS EPHEMERIDES TOOLS PHYSICAL DATA DISCOVERY FAQ SITE MAP
JPL Small-Body Database Browser
Search: [ help ]  
32856 (1992 SA25)
Classification: Main-belt Asteroid          SPK-ID: 2032856
Ephemeris | Orbit Diagram | Orbital Elements | Physical Parameters | Discovery Circumstances | Close-Approach Data ]

[ show orbit diagram ]
Orbital Elements at Epoch 2457000.5 (2014-Dec-09.0) TDB
Reference: JPL 18 (heliocentric ecliptic J2000)
 Element Value Uncertainty (1-sigma)   Units 
e .2760379059497265 6.3919e-08  
a 2.613207352445177 2.2063e-08 AU
q 1.891863067063782 1.681e-07 AU
i 12.84494607806203 7.1604e-06 deg
node 195.5986129092655 2.5466e-05 deg
peri 170.5107317168171 2.728e-05 deg
M 92.18286283849214 1.1747e-05 deg
tp 2456605.400095468516
(2013-Nov-08.90009547)
4.8467e-05 JED
period 1542.976224122448
4.22
1.954e-05
5.35e-08
d
yr
n .2333153255195143 2.9547e-09 deg/d
Q 3.334551637826573 2.8153e-08 AU
  Orbit Determination Parameters
   # obs. used (total)      816  
   data-arc span      10680 days (29.24 yr)  
   first obs. used      1986-03-15  
   last obs. used      2015-06-11  
   planetary ephem.      DE431  
   SB-pert. ephem.      SB431-BIG16  
   condition code      0  
   fit RMS      .51698  
   data source      ORB  
   producer      Otto Matic  
   solution date      2015-Jul-06 12:50:50  

Additional Information
 Earth MOID = .892233 AU 
 T_jup = 3.319 
[ show covariance matrix ]

Ephemeris | Orbit Diagram | Orbital Elements | Physical Parameters | Discovery Circumstances | Close-Approach Data ]

Physical Parameter Table
Parameter Symbol Value Units Sigma Reference Notes
absolute magnitude H 13.8 mag n/a MPO279857  
rotation period rot_per 13.507 h n/a LCDB (Rev. 2015-May); Warner et al., 2009 Published Reference List:
[Klinglesmith III, D.A.; Hanowell, J.; Risley, E.; Turk, J.; et al. (2014) Minor Planet Bul. 41, 82-84.]

32856 (1992 SA25)          Discovered 1992-Sep-30 by Holt, H. E. at Palomar
Reference: 20020128/Numbers.arcLast Updated: 2004-04-19

[ show close-approach data ]
Alternate Designations
 1992 SA25 = 2000 LW11 
Ephemeris | Orbit Diagram | Orbital Elements | Physical Parameters | Discovery Circumstances | Close-Approach Data ]
ABOUT SSD CREDITS/AWARDS PRIVACY/COPYRIGHT GLOSSARY LINKS
FirstGov 2015-Jul-28 10:23 UT
(server date/time)  
NASA Home Page
Site Manager:   Ryan S. Park
Webmaster  Alan B. Chamberlin